When you browse on this site, cookies collect data to enhance your experience and personalize the content and advertising you see.
Visit our Privacy Policy to learn more. By continuing to use the site, you agree to this use of cookies and data.
  • In Latvia
  • List of Countries
  • For 7 days
  • Water Temperature
  • Weather Map
  • Weather Widgets
  • user-avatar
    Login

    Hourly Weather Linz

    Today, 23 September, Monday

    Time Temperature Precipitation Wind Pressure Humidity
    00:00 +13°C° 0 mm 1 mps 730 mmHg 78%
    01:00 +13°C° 0 mm 1 mps 730 mmHg 82%
    02:00 +12°C° 0 mm 0 mps 730 mmHg 82%
    03:00 +11°C° 0 mm 0 mps 730 mmHg 83%
    04:00 +11°C° 0 mm 0 mps 729 mmHg 84%
    05:00 +12°C° 0 mm 0 mps 730 mmHg 83%
    06:00 +13°C° 0 mm 1 mps 730 mmHg 82%
    07:00 +14°C° 0 mm 1 mps 730 mmHg 82%
    08:00 +15°C° 0 mm 1 mps 731 mmHg 82%
    09:00 +16°C° 0 mm 2 mps 731 mmHg 82%
    10:00 +17°C° 0 mm 3 mps 731 mmHg 82%
    11:00 +15°C° 0.8 mm 4 mps 731 mmHg 85%
    12:00 +15°C° 0.8 mm 4 mps 731 mmHg 89%
    13:00 +14°C° 0.8 mm 5 mps 732 mmHg 93%
    14:00 +14°C° 0.9 mm 5 mps 732 mmHg 93%
    15:00 +13°C° 0.9 mm 5 mps 732 mmHg 94%
    16:00 +13°C° 0.9 mm 4 mps 732 mmHg 94%
    17:00 +13°C° 0.4 mm 4 mps 733 mmHg 94%
    18:00 +13°C° 0.4 mm 4 mps 733 mmHg 94%
    19:00 +13°C° 0.4 mm 3 mps 733 mmHg 94%
    20:00 +13°C° 0.2 mm 3 mps 733 mmHg 94%
    21:00 +13°C° 0.2 mm 3 mps 734 mmHg 94%
    22:00 +13°C° 0.2 mm 3 mps 734 mmHg 94%
    23:00 +12°C° 0.2 mm 3 mps 734 mmHg 94%

    Tomorrow, 24 September, Tuesday

    Time Temperature Precipitation Wind Pressure Humidity
    00:00 +13°C° 0.2 mm 2 mps 734 mmHg 94%
    01:00 +13°C° 0.2 mm 2 mps 734 mmHg 95%
    02:00 +13°C° 0.1 mm 2 mps 734 mmHg 94%
    03:00 +13°C° 0.1 mm 2 mps 734 mmHg 94%
    04:00 +13°C° 0.1 mm 2 mps 733 mmHg 94%
    05:00 +13°C° 0 mm 2 mps 733 mmHg 94%
    06:00 +13°C° 0 mm 2 mps 733 mmHg 94%
    07:00 +13°C° 0 mm 1 mps 733 mmHg 94%
    08:00 +14°C° 0 mm 1 mps 733 mmHg 90%
    09:00 +15°C° 0 mm 1 mps 733 mmHg 86%
    10:00 +16°C° 0 mm 1 mps 733 mmHg 82%
    11:00 +18°C° 0 mm 1 mps 732 mmHg 76%
    12:00 +19°C° 0 mm 1 mps 732 mmHg 70%
    13:00 +21°C° 0 mm 1 mps 731 mmHg 64%
    14:00 +20°C° 0 mm 2 mps 731 mmHg 65%
    15:00 +19°C° 0 mm 2 mps 731 mmHg 65%
    16:00 +19°C° 0 mm 2 mps 730 mmHg 66%
    17:00 +19°C° 0 mm 1 mps 730 mmHg 72%
    18:00 +16°C° 0 mm 1 mps 730 mmHg 78%
    19:00 +14°C° 0 mm 0 mps 730 mmHg 84%
    20:00 +14°C° 0 mm 0 mps 730 mmHg 85%
    21:00 +13°C° 0 mm 0 mps 731 mmHg 86%
    22:00 +13°C° 0 mm 0 mps 731 mmHg 88%
    23:00 +13°C° 0 mm 0 mps 731 mmHg 87%

    Day after tomorrow, 25 September, Wednesday

    Time Temperature Precipitation Wind Pressure Humidity
    00:00 +13°C° 0 mm 0 mps 731 mmHg 86%
    01:00 +13°C° 0 mm 0 mps 730 mmHg 84%
    02:00 +13°C° 0 mm 0 mps 730 mmHg 85%
    03:00 +13°C° 0 mm 0 mps 730 mmHg 85%
    04:00 +13°C° 0 mm 0 mps 730 mmHg 85%
    05:00 +13°C° 0 mm 0 mps 730 mmHg 85%
    06:00 +13°C° 0 mm 0 mps 730 mmHg 86%
    07:00 +14°C° 0 mm 1 mps 729 mmHg 86%
    08:00 +15°C° 0.2 mm 1 mps 730 mmHg 82%
    09:00 +17°C° 0.2 mm 2 mps 730 mmHg 79%
    10:00 +18°C° 0.2 mm 3 mps 730 mmHg 75%
    11:00 +18°C° 0.3 mm 3 mps 730 mmHg 74%
    12:00 +18°C° 0.3 mm 4 mps 730 mmHg 72%
    13:00 +18°C° 0.3 mm 4 mps 730 mmHg 71%
    14:00 +17°C° 0.1 mm 4 mps 730 mmHg 72%
    15:00 +17°C° 0.1 mm 3 mps 730 mmHg 74%
    16:00 +16°C° 0.1 mm 3 mps 730 mmHg 76%
    17:00 +15°C° 0 mm 2 mps 731 mmHg 78%
    18:00 +14°C° 0 mm 2 mps 731 mmHg 80%
    19:00 +13°C° 0 mm 2 mps 731 mmHg 83%
    20:00 +13°C° 0 mm 2 mps 732 mmHg 83%
    21:00 +13°C° 0 mm 2 mps 732 mmHg 83%
    22:00 +13°C° 0 mm 2 mps 732 mmHg 84%
    23:00 +13°C° 0 mm 2 mps 732 mmHg 84%

    26 September, Thursday

    Time Temperature Precipitation Wind Pressure Humidity
    00:00 +13°C° 0 mm 2 mps 732 mmHg 85%
    01:00 +13°C° 0 mm 1 mps 732 mmHg 85%
    02:00 +13°C° 0 mm 1 mps 732 mmHg 85%
    03:00 +13°C° 0 mm 1 mps 733 mmHg 84%
    04:00 +13°C° 0 mm 1 mps 733 mmHg 84%
    05:00 +13°C° 0 mm 1 mps 733 mmHg 84%
    06:00 +13°C° 0 mm 1 mps 733 mmHg 84%
    07:00 +13°C° 0 mm 1 mps 733 mmHg 84%
    08:00 +14°C° 0.1 mm 2 mps 733 mmHg 83%
    09:00 +14°C° 0.1 mm 2 mps 734 mmHg 82%
    10:00 +15°C° 0.1 mm 2 mps 734 mmHg 81%
    11:00 +15°C° 0.2 mm 2 mps 734 mmHg 84%
    12:00 +14°C° 0.2 mm 2 mps 734 mmHg 87%
    13:00 +14°C° 0.2 mm 2 mps 734 mmHg 90%
    14:00 +14°C° 0.1 mm 2 mps 734 mmHg 90%
    15:00 +14°C° 0.1 mm 2 mps 734 mmHg 90%
    16:00 +14°C° 0.1 mm 2 mps 734 mmHg 90%
    17:00 +14°C° 0 mm 2 mps 734 mmHg 91%
    18:00 +14°C° 0 mm 1 mps 735 mmHg 91%
    19:00 +13°C° 0 mm 1 mps 735 mmHg 91%
    20:00 +13°C° 0 mm 1 mps 735 mmHg 91%
    21:00 +13°C° 0 mm 1 mps 735 mmHg 91%
    22:00 +13°C° 0 mm 1 mps 736 mmHg 90%
    23:00 +14°C° 0.1 mm 1 mps 736 mmHg 91%

    27 September, Friday

    Time Temperature Precipitation Wind Pressure Humidity
    00:00 +14°C° 0.1 mm 1 mps 736 mmHg 92%
    01:00 +14°C° 0.1 mm 1 mps 735 mmHg 93%
    02:00 +13°C° 0.1 mm 1 mps 735 mmHg 93%
    03:00 +12°C° 0.1 mm 0 mps 735 mmHg 93%
    04:00 +12°C° 0.1 mm 0 mps 735 mmHg 93%
    05:00 +12°C° 0 mm 0 mps 735 mmHg 93%
    06:00 +12°C° 0 mm 0 mps 735 mmHg 93%
    07:00 +12°C° 0 mm 0 mps 735 mmHg 93%
    08:00 +15°C° 0 mm 1 mps 735 mmHg 88%
    09:00 +16°C° 0 mm 1 mps 735 mmHg 83%
    10:00 +19°C° 0 mm 1 mps 735 mmHg 78%
    11:00 +20°C° 0 mm 1 mps 735 mmHg 74%
    12:00 +21°C° 0 mm 1 mps 734 mmHg 70%
    13:00 +22°C° 0 mm 1 mps 734 mmHg 66%
    14:00 +22°C° 0 mm 1 mps 734 mmHg 67%
    15:00 +22°C° 0 mm 1 mps 733 mmHg 68%
    16:00 +22°C° 0 mm 1 mps 733 mmHg 69%
    17:00 +20°C° 0.1 mm 1 mps 733 mmHg 75%
    18:00 +17°C° 0.1 mm 0 mps 733 mmHg 80%
    19:00 +16°C° 0.1 mm 0 mps 734 mmHg 85%
    20:00 +15°C° 0.2 mm 0 mps 734 mmHg 86%
    21:00 +16°C° 0.2 mm 1 mps 734 mmHg 88%
    22:00 +16°C° 0.2 mm 1 mps 734 mmHg 90%
    23:00 +16°C° 0.3 mm 1 mps 734 mmHg 91%

    28 September, Saturday

    Time Temperature Precipitation Wind Pressure Humidity
    00:00 +15°C° 0.3 mm 1 mps 734 mmHg 91%
    01:00 +15°C° 0.3 mm 1 mps 734 mmHg 92%
    02:00 +15°C° 0.8 mm 1 mps 734 mmHg 93%
    03:00 +15°C° 0.8 mm 1 mps 734 mmHg 94%
    04:00 +15°C° 0.8 mm 1 mps 734 mmHg 95%
    05:00 +15°C° 0.7 mm 1 mps 734 mmHg 96%
    06:00 +15°C° 0.7 mm 1 mps 734 mmHg 96%
    07:00 +14°C° 0.7 mm 0 mps 734 mmHg 97%
    08:00 +15°C° 0.9 mm 1 mps 734 mmHg 96%
    09:00 +15°C° 0.9 mm 1 mps 734 mmHg 95%
    10:00 +15°C° 0.9 mm 1 mps 734 mmHg 94%
    11:00 +16°C° 0.1 mm 2 mps 734 mmHg 91%
    12:00 +16°C° 0.1 mm 2 mps 734 mmHg 88%
    13:00 +17°C° 0.1 mm 2 mps 734 mmHg 86%
    14:00 +16°C° 0 mm 2 mps 734 mmHg 85%
    15:00 +16°C° 0 mm 2 mps 734 mmHg 84%
    16:00 +16°C° 0 mm 2 mps 734 mmHg 83%
    17:00 +16°C° 0 mm 2 mps 734 mmHg 84%
    18:00 +15°C° 0 mm 2 mps 734 mmHg 85%
    19:00 +15°C° 0 mm 2 mps 735 mmHg 86%
    20:00 +15°C° 0 mm 2 mps 735 mmHg 86%
    21:00 +14°C° 0 mm 2 mps 735 mmHg 85%
    22:00 +14°C° 0 mm 2 mps 735 mmHg 85%
    23:00 +13°C° 0 mm 1 mps 735 mmHg 86%
    Show more